Date String (YYYY-MM-DD hh:mm:ss) UTC,Instrument flags,Ambient pressure (hPa),Sample flow (lpm),Bypass flow (lpm),Sample temperature (°C),Ambient temperature (°C),ASC tube jacket temperature (°C),LED temperature (°C),Box temperature (°C),Sample RH (%),Span deviation,Mass concentration (μg/m³),Mass concentration (μg/m³),Mass concentration (μg/m³)
DateTimeUTC,F1_M11,P_M11,Q1_M11,Q2_M11,T1_M11,T2_M11,T3_M11,T4_M11,T5_M11,U1_M11,ZSPAN_M11,X2_M11,X0_M11,X1_M11
2022-03-24 06:00:00,,0825.9,4.99,0.00,21.9,21.1,00.0,31.0,23.6,08.3,0000.0,0001.83,0005.10,0001.09
2022-03-24 06:01:00,,0826.0,5.00,0.00,21.9,21.1,00.0,31.0,23.7,08.4,0000.0,0001.87,0005.19,0001.09
2022-03-24 06:02:00,,0826.0,5.00,0.00,21.9,21.1,00.0,31.0,23.7,08.4,0000.0,0001.89,0005.21,0001.09
2022-03-24 06:03:00,,0825.9,5.00,0.00,22.0,21.2,00.0,31.0,23.7,08.3,0000.0,0001.93,0005.15,0001.09
2022-03-24 06:04:00,,0825.9,5.00,0.00,22.0,21.2,00.0,31.0,23.7,08.3,0000.0,0001.93,0003.62,0001.09
2022-03-24 06:05:00,,0825.9,5.01,0.00,22.0,21.2,00.0,31.0,23.7,08.3,0000.0,0001.94,0003.73,0001.10
2022-03-24 06:06:00,,0825.8,5.00,0.00,22.0,21.2,00.0,31.0,23.7,08.3,0000.0,0001.94,0003.80,0001.10
2022-03-24 06:07:00,,0825.9,4.99,0.00,22.0,21.2,00.0,31.0,23.8,08.3,0000.0,0001.94,0003.76,0001.09
2022-03-24 06:08:00,,0825.9,5.00,0.00,22.0,21.2,00.0,31.0,23.8,08.3,0000.0,0001.96,0003.82,0001.08
2022-03-24 06:09:00,,0825.9,5.00,0.00,22.0,21.2,00.0,31.0,23.8,08.3,0000.0,0001.92,0003.73,0001.07
2022-03-24 06:10:00,,0825.9,5.00,0.00,22.0,21.2,00.0,31.0,23.8,08.3,0000.0,0001.85,0003.73,0001.05
2022-03-24 06:11:00,,0825.9,5.00,0.00,22.0,21.2,00.0,31.0,23.8,08.3,0000.0,0001.88,0004.18,0001.06
2022-03-24 06:12:00,,0825.9,5.00,0.00,22.0,21.2,00.0,31.0,23.7,08.3,0000.0,0001.88,0004.26,0001.07
2022-03-24 06:13:00,,0825.8,4.99,0.00,22.0,21.2,00.0,31.0,23.8,08.3,0000.0,0001.88,0004.29,0001.07
2022-03-24 06:14:00,,0825.8,5.01,0.00,22.0,21.1,00.0,31.0,23.7,08.3,0000.0,0001.87,0004.29,0001.07
2022-03-24 06:15:00,,0825.8,4.99,0.00,22.0,21.1,00.0,31.0,23.7,08.4,0000.0,0001.91,0004.39,0001.08
2022-03-24 06:16:00,,0825.8,5.00,0.00,22.0,21.1,00.0,31.0,23.7,08.4,0000.0,0001.86,0004.19,0001.08
2022-03-24 06:17:00,,0825.8,5.00,0.00,22.0,21.1,00.0,31.0,23.7,08.4,0000.0,0001.87,0004.44,0001.08
2022-03-24 06:18:00,,0825.8,5.01,0.00,22.0,21.1,00.0,31.0,23.7,08.4,0000.0,0001.85,0004.50,0001.07
2022-03-24 06:19:00,,0825.8,5.00,0.00,22.0,21.1,00.0,31.0,23.7,08.4,0000.0,0001.88,0004.74,0001.08
2022-03-24 06:20:00,,0825.8,5.00,0.00,21.9,21.1,00.0,31.0,23.7,08.4,0000.0,0001.87,0004.72,0001.08
2022-03-24 06:21:00,,0825.8,4.98,0.00,21.9,21.1,00.0,31.0,23.7,08.4,0000.0,0001.83,0004.52,0001.09
2022-03-24 06:22:00,,0825.8,5.00,0.00,21.9,21.1,00.0,31.0,23.7,08.4,0000.0,0001.81,0004.36,0001.08
2022-03-24 06:23:00,,0825.8,5.00,0.00,21.9,21.1,00.0,30.9,23.7,08.4,0000.0,0001.75,0004.51,0001.07
2022-03-24 06:24:00,,0825.7,5.00,0.00,21.9,21.1,00.0,30.9,23.7,08.3,0000.0,0001.75,0004.75,0001.07
2022-03-24 06:25:00,,0825.8,5.00,0.00,21.9,21.1,00.0,30.9,23.6,08.4,0000.0,0001.75,0005.21,0001.07
2022-03-24 06:26:00,,0825.8,5.00,0.00,21.9,21.1,00.0,30.9,23.6,08.4,0000.0,0001.71,0005.08,0001.06
2022-03-24 06:27:00,,0825.8,5.00,0.00,21.9,21.0,00.0,30.9,23.7,08.4,0000.0,0001.71,0005.14,0001.06
2022-03-24 06:28:00,,0825.7,5.00,0.00,21.9,21.1,00.0,30.9,23.7,08.4,0000.0,0001.71,0005.06,0001.05
2022-03-24 06:29:00,,0825.7,5.00,0.00,21.9,21.1,00.0,30.9,23.7,08.4,0000.0,0001.74,0005.04,0001.06
2022-03-24 06:30:00,,0825.7,5.00,0.00,21.9,21.0,00.0,30.9,23.6,08.5,0000.0,0001.81,0005.20,0001.06
2022-03-24 06:31:00,,0825.7,4.99,0.00,21.9,21.0,00.0,30.9,23.6,08.5,0000.0,0001.79,0005.12,0001.07
2022-03-24 06:32:00,,0825.7,5.00,0.00,21.9,21.0,00.0,30.9,23.5,08.5,0000.0,0001.85,0005.80,0001.08
2022-03-24 06:33:00,,0825.7,5.00,0.00,21.9,20.9,00.0,30.9,23.5,08.6,0000.0,0001.84,0005.85,0001.09
2022-03-24 06:34:00,,0825.8,5.00,0.00,21.8,20.9,00.0,30.9,23.4,08.6,0000.0,0001.85,0005.72,0001.08
2022-03-24 06:35:00,,0825.8,5.00,0.00,21.8,20.8,00.0,30.9,23.4,08.6,0000.0,0001.84,0006.39,0001.08
2022-03-24 06:36:00,,0825.7,5.00,0.00,21.8,20.8,00.0,30.9,23.4,08.7,0000.0,0001.85,0005.85,0001.08
2022-03-24 06:37:00,,0825.7,5.00,0.00,21.7,20.7,00.0,30.9,23.4,08.7,0000.0,0001.85,0005.91,0001.08
2022-03-24 06:38:00,,0825.7,5.00,0.00,21.7,20.7,00.0,30.8,23.3,08.7,0000.0,0001.87,0006.01,0001.07
2022-03-24 06:39:00,,0825.7,5.00,0.00,21.6,20.6,00.0,30.8,23.3,08.6,0000.0,0001.95,0006.15,0001.07
2022-03-24 06:40:00,,0825.7,5.00,0.00,21.6,20.6,00.0,30.8,23.3,08.6,0000.0,0001.92,0005.92,0001.06
2022-03-24 06:41:00,,0825.7,5.00,0.00,21.6,20.6,00.0,30.8,23.2,08.7,0000.0,0001.84,0005.62,0001.06
2022-03-24 06:42:00,,0825.7,5.00,0.00,21.6,20.6,00.0,30.7,23.2,08.7,0000.0,0001.85,0005.83,0001.05
2022-03-24 06:43:00,,0825.7,5.00,0.00,21.6,20.6,00.0,30.7,23.2,08.7,0000.0,0001.87,0005.59,0001.05
2022-03-24 06:44:00,,0825.7,5.00,0.00,21.6,20.6,00.0,30.7,23.3,08.7,0000.0,0001.93,0005.53,0001.06
2022-03-24 06:45:00,,0825.7,5.01,0.00,21.6,20.7,00.0,30.7,23.3,08.7,0000.0,0001.95,0005.02,0001.09
2022-03-24 06:46:00,,0825.7,5.00,0.00,21.6,20.7,00.0,30.7,23.2,08.6,0000.0,0001.99,0004.53,0001.10
2022-03-24 06:47:00,,0825.7,5.00,0.00,21.6,20.7,00.0,30.7,23.2,08.6,0000.0,0001.98,0004.42,0001.09
2022-03-24 06:48:00,,0825.7,4.99,0.00,21.6,20.7,00.0,30.7,23.3,08.6,0000.0,0002.01,0004.49,0001.10
2022-03-24 06:49:00,,0825.7,5.00,0.00,21.6,20.7,00.0,30.7,23.3,08.6,0000.0,0002.01,0004.53,0001.12
2022-03-24 06:50:00,,0825.7,5.00,0.00,21.6,20.7,00.0,30.7,23.3,08.6,0000.0,0001.98,0004.71,0001.13
2022-03-24 06:51:00,,0825.7,5.01,0.00,21.6,20.7,00.0,30.6,23.2,08.7,0000.0,0002.02,0004.90,0001.16
2022-03-24 06:52:00,,0825.7,5.00,0.00,21.5,20.7,00.0,30.6,23.2,08.7,0000.0,0002.00,0004.88,0001.16
2022-03-24 06:53:00,,0825.7,5.00,0.00,21.5,20.6,00.0,30.6,23.2,08.7,0000.0,0001.97,0004.56,0001.17
2022-03-24 06:54:00,,0825.7,4.99,0.00,21.5,20.5,00.0,30.6,23.1,08.7,0000.0,0001.91,0004.39,0001.17
2022-03-24 06:55:00,,0825.7,4.99,0.00,21.5,20.5,00.0,30.6,23.1,08.6,0000.0,0001.88,0004.95,0001.16
2022-03-24 06:56:00,,0825.7,5.00,0.00,21.5,20.5,00.0,30.6,23.1,08.6,0000.0,0001.83,0005.02,0001.14
2022-03-24 06:57:00,,0825.7,5.00,0.00,21.5,20.5,00.0,30.6,23.1,08.7,0000.0,0001.79,0004.70,0001.14
2022-03-24 06:58:00,,0825.7,5.00,0.00,21.5,20.5,00.0,30.6,23.1,08.7,0000.0,0001.82,0004.80,0001.14
2022-03-24 06:59:00,,0825.7,5.00,0.00,21.5,20.5,00.0,30.6,23.1,08.8,0000.0,0001.81,0004.77,0001.13
